OYSKJ LOWI-EGGW

Flight info

Callsign OYSKJ
Flight time 1h 34m
Altitude 40000
Route KPT L608 TEDGO DCT SUNEG L608 ULNOK DCT ADENU DCT LIRSU DCT KOZUF DCT IMPOH DCT SASKI L608 SUMUM Y6 TOSVA
Aircraft CL60/M-SBDE1E2E3FGHIJ1J4J5J7M3RWXYZ/LB1V1D1

Departure

Time 2026-05-07 18:11
Airport Innsbruck Airport (LOWI)

Arrival

Time 2026-05-07 19:46
Airport London Luton Airport (EGGW)
Time Latitude Longitude Altitude Speed Heading
2026-05-07 17:43 47.25876 11.35391 1912 ft 0 kts 260°
2026-05-07 17:46 47.25876 11.35392 1912 ft 0 kts 260°
2026-05-07 18:02 47.25876 11.35377 1911 ft 1 kts 281°
2026-05-07 18:03 47.25893 11.35343 1911 ft 6 kts 307°
2026-05-07 18:03 47.25905 11.35262 1911 ft 10 kts 266°
2026-05-07 18:03 47.25893 11.35143 1911 ft 13 kts 261°
2026-05-07 18:03 47.25877 11.34994 1912 ft 16 kts 261°
2026-05-07 18:04 47.25857 11.34816 1913 ft 18 kts 260°
2026-05-07 18:04 47.25836 11.34615 1915 ft 20 kts 260°
2026-05-07 18:04 47.25812 11.34395 1916 ft 22 kts 261°
2026-05-07 18:04 47.25789 11.34174 1917 ft 20 kts 262°
2026-05-07 18:05 47.25776 11.34001 1918 ft 16 kts 275°
2026-05-07 18:05 47.25812 11.33875 1918 ft 14 kts 308°
2026-05-07 18:05 47.25855 11.33788 1918 ft 6 kts 306°
2026-05-07 18:05 47.25862 11.33775 1918 ft 0 kts 306°
2026-05-07 18:09 47.25863 11.33774 1917 ft 1 kts 306°
2026-05-07 18:09 47.25889 11.33720 1917 ft 9 kts 306°
2026-05-07 18:10 47.25928 11.33646 1917 ft 4 kts 334°
2026-05-07 18:10 47.25949 11.33679 1917 ft 4 kts 81°
2026-05-07 18:10 47.25950 11.33685 1917 ft 0 kts 81°
2026-05-07 18:11 47.25990 11.34061 1915 ft 91 kts 81°
2026-05-07 18:11 47.26081 11.34871 1911 ft 149 kts 81°
2026-05-07 18:11 47.26320 11.37097 2962 ft 178 kts 80°
2026-05-07 18:11 47.26505 11.38873 4176 ft 178 kts 79°
2026-05-07 18:12 47.26682 11.40553 5404 ft 174 kts 79°
2026-05-07 18:12 47.26866 11.42279 6498 ft 176 kts 78°
2026-05-07 18:12 47.27052 11.44020 7573 ft 178 kts 78°
2026-05-07 18:12 47.27362 11.45756 8436 ft 190 kts 68°
2026-05-07 18:13 47.27917 11.47750 9018 ft 226 kts 65°
2026-05-07 18:13 47.28534 11.49886 10157 ft 235 kts 65°
2026-05-07 18:13 47.29092 11.52151 11310 ft 246 kts 81°
2026-05-07 18:13 47.28869 11.54637 12399 ft 258 kts 115°
2026-05-07 18:14 47.27645 11.56746 12914 ft 292 kts 148°
2026-05-07 18:14 47.25666 11.57661 13449 ft 315 kts 181°
2026-05-07 18:14 47.23612 11.56833 14728 ft 311 kts 213°
2026-05-07 18:14 47.22134 11.54626 15980 ft 308 kts 242°
2026-05-07 18:15 47.21458 11.51607 16736 ft 320 kts 262°
2026-05-07 18:15 47.21365 11.48270 17398 ft 337 kts 275°
2026-05-07 18:15 47.21864 11.44867 18281 ft 346 kts 288°
2026-05-07 18:15 47.22663 11.41504 19247 ft 352 kts 289°
2026-05-07 18:16 47.23475 11.38100 20220 ft 358 kts 289°
2026-05-07 18:16 47.24290 11.34666 21166 ft 363 kts 289°
2026-05-07 18:16 47.25123 11.31148 22070 ft 368 kts 289°
2026-05-07 18:16 47.25973 11.27550 22956 ft 373 kts 289°
2026-05-07 18:17 47.26821 11.23949 23788 ft 378 kts 289°
2026-05-07 18:17 47.27692 11.20245 24591 ft 383 kts 288°
2026-05-07 18:17 47.28606 11.16613 25448 ft 386 kts 294°
2026-05-07 18:17 47.30167 11.13363 26248 ft 390 kts 312°
2026-05-07 18:18 47.32065 11.10556 26889 ft 395 kts 313°
2026-05-07 18:18 47.34017 11.07673 27551 ft 398 kts 313°
2026-05-07 18:18 47.35966 11.04783 28172 ft 401 kts 313°
2026-05-07 18:18 47.37948 11.01839 28781 ft 404 kts 313°
2026-05-07 18:19 47.39919 10.98909 29402 ft 406 kts 313°
2026-05-07 18:19 47.41930 10.95913 29945 ft 409 kts 313°
2026-05-07 18:19 47.43921 10.92942 30467 ft 412 kts 313°
2026-05-07 18:19 47.45952 10.89908 30956 ft 414 kts 313°
2026-05-07 18:20 47.47965 10.86894 31350 ft 417 kts 312°
2026-05-07 18:20 47.49997 10.83850 31720 ft 420 kts 312°
2026-05-07 18:20 47.52078 10.80727 32086 ft 422 kts 312°
2026-05-07 18:20 47.54131 10.77643 32425 ft 425 kts 312°
2026-05-07 18:21 47.56231 10.74484 32759 ft 427 kts 312°
2026-05-07 18:21 47.58269 10.71413 33125 ft 427 kts 312°
2026-05-07 18:21 47.60342 10.68287 33460 ft 426 kts 312°
2026-05-07 18:21 47.62411 10.65162 33804 ft 425 kts 311°
2026-05-07 18:22 47.64487 10.62024 34139 ft 423 kts 311°
2026-05-07 18:22 47.65841 10.59973 34346 ft 423 kts 311°
2026-05-07 18:22 47.68594 10.55800 34761 ft 423 kts 311°
2026-05-07 18:22 47.70638 10.52697 35046 ft 424 kts 311°
2026-05-07 18:23 47.72713 10.49543 35331 ft 424 kts 311°
2026-05-07 18:23 47.74764 10.46421 35626 ft 424 kts 311°
2026-05-07 18:23 47.76823 10.43284 35882 ft 425 kts 311°
2026-05-07 18:23 47.78879 10.40147 36161 ft 425 kts 311°
2026-05-07 18:24 47.80950 10.36983 36442 ft 425 kts 311°
2026-05-07 18:24 47.82998 10.33850 36701 ft 425 kts 311°
2026-05-07 18:24 47.85060 10.30693 36940 ft 426 kts 311°
2026-05-07 18:24 47.87123 10.27529 37158 ft 427 kts 311°
2026-05-07 18:25 47.89197 10.24346 37371 ft 428 kts 311°
2026-05-07 18:25 47.91262 10.21171 37574 ft 429 kts 311°
2026-05-07 18:25 47.93314 10.18013 37769 ft 429 kts 311°
2026-05-07 18:25 47.95378 10.14833 37968 ft 430 kts 311°
2026-05-07 18:26 47.97480 10.11590 38168 ft 431 kts 311°
2026-05-07 18:26 47.99547 10.08398 38352 ft 431 kts 311°
2026-05-07 18:26 48.01644 10.05154 38537 ft 431 kts 311°
2026-05-07 18:26 48.03724 10.01934 38732 ft 432 kts 311°
2026-05-07 18:27 48.05804 9.98710 38916 ft 432 kts 311°
2026-05-07 18:27 48.07883 9.95482 39089 ft 433 kts 311°
2026-05-07 18:27 48.09984 9.92216 39279 ft 433 kts 311°
2026-05-07 18:27 48.11353 9.90087 39404 ft 433 kts 311°
2026-05-07 18:28 48.14137 9.85750 39623 ft 433 kts 311°
2026-05-07 18:28 48.16219 9.82502 39768 ft 434 kts 311°
2026-05-07 18:28 48.18330 9.79204 39913 ft 434 kts 311°
2026-05-07 18:28 48.20431 9.75919 40035 ft 435 kts 311°
2026-05-07 18:29 48.22520 9.72647 40032 ft 439 kts 311°
2026-05-07 18:29 48.26763 9.65989 40033 ft 444 kts 311°
2026-05-07 18:30 48.31035 9.59268 40020 ft 449 kts 311°
2026-05-07 18:30 48.35377 9.52421 40021 ft 453 kts 311°
2026-05-07 18:31 48.39710 9.45570 40019 ft 458 kts 311°
2026-05-07 18:31 48.44134 9.38557 40022 ft 461 kts 311°
2026-05-07 18:32 48.48547 9.31545 40027 ft 461 kts 310°
2026-05-07 18:32 48.52929 9.24560 40031 ft 459 kts 310°
2026-05-07 18:33 48.57316 9.17551 40041 ft 458 kts 310°
2026-05-07 18:33 48.61688 9.10544 40043 ft 459 kts 311°
2026-05-07 18:34 48.66059 9.03520 40040 ft 460 kts 310°
2026-05-07 18:34 48.70408 8.96514 40037 ft 460 kts 310°
2026-05-07 18:35 48.74770 8.89466 40035 ft 460 kts 310°
2026-05-07 18:35 48.79136 8.82392 40037 ft 460 kts 311°
2026-05-07 18:36 48.83493 8.75315 40034 ft 460 kts 311°
2026-05-07 18:36 48.87840 8.68232 40035 ft 460 kts 311°
2026-05-07 18:37 48.92204 8.61103 40033 ft 460 kts 311°
2026-05-07 18:37 48.96536 8.54008 40031 ft 460 kts 311°
2026-05-07 18:38 49.00874 8.46883 40039 ft 460 kts 311°
2026-05-07 18:38 49.05223 8.39720 40036 ft 460 kts 311°
2026-05-07 18:39 49.09356 8.32294 40036 ft 458 kts 307°
2026-05-07 18:39 49.13343 8.24746 40037 ft 458 kts 307°
2026-05-07 18:40 49.17349 8.17139 40031 ft 459 kts 306°
2026-05-07 18:40 49.21314 8.09587 40021 ft 459 kts 307°
2026-05-07 18:41 49.25319 8.01937 40020 ft 459 kts 306°
2026-05-07 18:41 49.29283 7.94341 40029 ft 459 kts 307°
2026-05-07 18:42 49.33265 7.86689 40035 ft 459 kts 307°
2026-05-07 18:42 49.37228 7.79050 40031 ft 459 kts 306°
2026-05-07 18:43 49.41193 7.71386 40033 ft 460 kts 307°
2026-05-07 18:43 49.45184 7.63649 40038 ft 460 kts 307°
2026-05-07 18:44 49.49077 7.55834 40043 ft 460 kts 304°
2026-05-07 18:44 49.52851 7.47942 40048 ft 460 kts 304°
2026-05-07 18:45 49.56631 7.40016 40044 ft 460 kts 304°
2026-05-07 18:45 49.60413 7.32056 40049 ft 460 kts 304°
2026-05-07 18:46 49.64201 7.24058 40046 ft 461 kts 304°
2026-05-07 18:46 49.67959 7.16099 40046 ft 460 kts 304°
2026-05-07 18:47 49.71715 7.08116 40047 ft 460 kts 304°
2026-05-07 18:47 49.75450 7.00155 40049 ft 460 kts 304°
2026-05-07 18:48 49.79207 6.92121 40045 ft 460 kts 304°
2026-05-07 18:48 49.82944 6.84103 40051 ft 460 kts 304°
2026-05-07 18:49 49.86677 6.76071 40050 ft 460 kts 304°
2026-05-07 18:49 49.90391 6.68057 40051 ft 461 kts 304°
2026-05-07 18:50 49.94125 6.59971 40050 ft 461 kts 304°
2026-05-07 18:50 49.97858 6.51866 40053 ft 462 kts 304°
2026-05-07 18:51 50.01582 6.43753 40045 ft 463 kts 304°
2026-05-07 18:51 50.05293 6.35643 40047 ft 463 kts 304°
2026-05-07 18:52 50.09003 6.27512 40042 ft 462 kts 303°
2026-05-07 18:52 50.12725 6.19330 40042 ft 462 kts 303°
2026-05-07 18:53 50.16413 6.11195 40043 ft 462 kts 303°
2026-05-07 18:53 50.20123 6.02988 40044 ft 462 kts 303°
2026-05-07 18:54 50.23823 5.94777 40045 ft 462 kts 303°
2026-05-07 18:54 50.27497 5.86599 40040 ft 462 kts 303°
2026-05-07 18:55 50.31203 5.78322 40040 ft 462 kts 303°
2026-05-07 18:55 50.34850 5.70151 40045 ft 462 kts 303°
2026-05-07 18:56 50.38522 5.61898 40051 ft 463 kts 303°
2026-05-07 18:56 50.42192 5.53627 40052 ft 463 kts 303°
2026-05-07 18:57 50.45851 5.45352 40055 ft 463 kts 303°
2026-05-07 18:57 50.49531 5.37004 40054 ft 463 kts 303°
2026-05-07 18:58 50.53181 5.28697 40059 ft 462 kts 302°
2026-05-07 18:58 50.56829 5.20366 40053 ft 462 kts 302°
2026-05-07 18:59 50.60448 5.12078 40052 ft 462 kts 302°
2026-05-07 18:59 50.64080 5.03733 40052 ft 463 kts 302°
2026-05-07 19:00 50.67710 4.95364 40054 ft 463 kts 302°
2026-05-07 19:00 50.71357 4.86932 40052 ft 464 kts 302°
2026-05-07 19:01 50.74963 4.78566 40053 ft 464 kts 302°
2026-05-07 19:01 50.78567 4.70177 40056 ft 464 kts 302°
2026-05-07 19:02 50.82207 4.61678 40056 ft 464 kts 302°
2026-05-07 19:02 50.85803 4.53256 39832 ft 466 kts 302°
2026-05-07 19:02 50.87597 4.49046 39314 ft 462 kts 302°
2026-05-07 19:03 50.89390 4.44830 38857 ft 455 kts 302°
2026-05-07 19:03 50.91124 4.40749 38537 ft 447 kts 302°
2026-05-07 19:03 50.92860 4.36655 38191 ft 440 kts 302°
2026-05-07 19:03 50.94562 4.32633 37859 ft 442 kts 302°
2026-05-07 19:04 50.96279 4.28566 37514 ft 445 kts 302°
2026-05-07 19:04 50.98005 4.24474 37190 ft 446 kts 302°
2026-05-07 19:04 50.99730 4.20381 36861 ft 446 kts 302°
2026-05-07 19:04 51.01461 4.16263 36623 ft 444 kts 302°
2026-05-07 19:05 51.03177 4.12179 36469 ft 443 kts 302°
2026-05-07 19:05 51.04883 4.08108 36318 ft 444 kts 302°
2026-05-07 19:05 51.06574 4.04068 36172 ft 444 kts 302°
2026-05-07 19:05 51.08306 3.99925 36061 ft 443 kts 302°
2026-05-07 19:06 51.10005 3.95852 36064 ft 442 kts 302°
2026-05-07 19:06 51.15107 3.83585 36075 ft 443 kts 302°
2026-05-07 19:07 51.18509 3.75374 35763 ft 450 kts 302°
2026-05-07 19:07 51.20229 3.71214 35347 ft 448 kts 302°
2026-05-07 19:07 51.21931 3.67092 34901 ft 447 kts 302°
2026-05-07 19:08 51.23651 3.62918 34360 ft 446 kts 302°
2026-05-07 19:08 51.25343 3.58805 33826 ft 446 kts 302°
2026-05-07 19:08 51.27026 3.54708 33309 ft 446 kts 302°
2026-05-07 19:08 51.28736 3.50541 32798 ft 446 kts 302°
2026-05-07 19:09 51.30419 3.46428 32300 ft 447 kts 302°
2026-05-07 19:09 51.32114 3.42285 31807 ft 448 kts 302°
2026-05-07 19:09 51.33833 3.38074 31305 ft 449 kts 302°
2026-05-07 19:09 51.35516 3.33944 30799 ft 450 kts 301°
2026-05-07 19:10 51.37221 3.29754 30312 ft 450 kts 301°
2026-05-07 19:10 51.38926 3.25559 29811 ft 447 kts 301°
2026-05-07 19:10 51.40620 3.21383 29321 ft 444 kts 301°
2026-05-07 19:10 51.42270 3.17309 28838 ft 441 kts 301°
2026-05-07 19:11 51.43928 3.13197 28348 ft 437 kts 300°
2026-05-07 19:11 51.45188 3.08861 28094 ft 430 kts 286°
2026-05-07 19:11 51.46744 2.99578 28063 ft 430 kts 284°
2026-05-07 19:12 51.48285 2.90283 28063 ft 432 kts 284°
2026-05-07 19:12 51.49817 2.80976 28061 ft 433 kts 284°
2026-05-07 19:13 51.51342 2.71648 28061 ft 433 kts 284°
2026-05-07 19:13 51.52854 2.62344 28062 ft 433 kts 284°
2026-05-07 19:14 51.54361 2.53013 28061 ft 433 kts 284°
2026-05-07 19:14 51.56224 2.43825 28017 ft 435 kts 289°
2026-05-07 19:15 51.57277 2.39247 27561 ft 437 kts 289°
2026-05-07 19:15 51.58311 2.34733 27071 ft 431 kts 289°
2026-05-07 19:15 51.59342 2.30229 26574 ft 426 kts 289°
2026-05-07 19:15 51.60360 2.25770 26075 ft 422 kts 289°
2026-05-07 19:16 51.61361 2.21377 25553 ft 419 kts 289°
2026-05-07 19:16 51.62380 2.16944 24994 ft 416 kts 290°
2026-05-07 19:16 51.63758 2.12914 24565 ft 414 kts 304°
2026-05-07 19:16 51.65725 2.09561 24189 ft 414 kts 319°
2026-05-07 19:17 51.68150 2.07029 24050 ft 416 kts 330°
2026-05-07 19:17 51.70682 2.04894 24057 ft 415 kts 330°
2026-05-07 19:17 51.73257 2.02718 24063 ft 417 kts 330°
2026-05-07 19:17 51.75793 2.00566 24019 ft 419 kts 330°
2026-05-07 19:18 51.78398 1.98353 23476 ft 422 kts 330°
2026-05-07 19:18 51.80976 1.96160 22855 ft 415 kts 330°
2026-05-07 19:18 51.83487 1.94021 22236 ft 409 kts 330°
2026-05-07 19:18 51.85997 1.91878 21608 ft 405 kts 330°
2026-05-07 19:19 51.88455 1.89738 20987 ft 401 kts 328°
2026-05-07 19:19 51.90610 1.86934 20393 ft 395 kts 312°
2026-05-07 19:19 51.92389 1.83565 19874 ft 390 kts 309°
2026-05-07 19:19 51.94111 1.80243 19612 ft 389 kts 309°
2026-05-07 19:20 51.95855 1.76883 19361 ft 390 kts 309°
2026-05-07 19:20 51.97603 1.73510 19091 ft 390 kts 309°
2026-05-07 19:20 51.99326 1.70178 18792 ft 388 kts 309°
2026-05-07 19:20 52.01068 1.66805 18500 ft 386 kts 309°
2026-05-07 19:21 52.02784 1.63477 18249 ft 385 kts 309°
2026-05-07 19:21 52.04502 1.60139 18001 ft 384 kts 309°
2026-05-07 19:21 52.06191 1.56852 17752 ft 383 kts 309°
2026-05-07 19:21 52.07892 1.53537 17504 ft 382 kts 309°
2026-05-07 19:22 52.09593 1.50217 17257 ft 381 kts 309°
2026-05-07 19:22 52.11291 1.46899 17010 ft 380 kts 309°
2026-05-07 19:22 52.12973 1.43607 16760 ft 379 kts 309°
2026-05-07 19:22 52.14663 1.40278 16508 ft 378 kts 307°
2026-05-07 19:23 52.15995 1.36619 16283 ft 374 kts 291°
2026-05-07 19:23 52.16613 1.32528 16036 ft 372 kts 277°
2026-05-07 19:23 52.16940 1.28389 15890 ft 370 kts 276°
2026-05-07 19:23 52.17275 1.24194 15759 ft 370 kts 276°
2026-05-07 19:24 52.17606 1.20045 15596 ft 370 kts 276°
2026-05-07 19:24 52.17939 1.15839 15348 ft 369 kts 276°
2026-05-07 19:24 52.18265 1.11691 15100 ft 368 kts 276°
2026-05-07 19:24 52.18588 1.07572 14857 ft 367 kts 276°
2026-05-07 19:25 52.18908 1.03470 14617 ft 366 kts 276°
2026-05-07 19:25 52.19224 0.99383 14360 ft 365 kts 276°
2026-05-07 19:25 52.19541 0.95283 14123 ft 364 kts 276°
2026-05-07 19:25 52.19845 0.91317 13941 ft 357 kts 276°
2026-05-07 19:26 52.20145 0.87405 13705 ft 339 kts 276°
2026-05-07 19:26 52.20427 0.83697 13471 ft 324 kts 276°
2026-05-07 19:26 52.20699 0.80102 13247 ft 311 kts 276°
2026-05-07 19:26 52.20957 0.76664 12981 ft 300 kts 276°
2026-05-07 19:27 52.21205 0.73338 12745 ft 295 kts 276°
2026-05-07 19:27 52.21454 0.69982 12494 ft 297 kts 276°
2026-05-07 19:27 52.21699 0.66666 12242 ft 297 kts 276°
2026-05-07 19:27 52.21946 0.63321 11988 ft 295 kts 276°
2026-05-07 19:28 52.22189 0.59998 11751 ft 294 kts 276°
2026-05-07 19:28 52.22430 0.56712 11503 ft 293 kts 276°
2026-05-07 19:28 52.22669 0.53446 11224 ft 291 kts 276°
2026-05-07 19:28 52.22908 0.50149 11065 ft 289 kts 276°
2026-05-07 19:29 52.23143 0.46905 11058 ft 290 kts 276°
2026-05-07 19:29 52.23380 0.43619 11044 ft 290 kts 276°
2026-05-07 19:29 52.23611 0.40392 11064 ft 290 kts 276°
2026-05-07 19:29 52.23848 0.37087 11062 ft 290 kts 276°
2026-05-07 19:30 52.24079 0.33843 11059 ft 290 kts 275°
2026-05-07 19:30 52.24313 0.30563 11060 ft 291 kts 275°
2026-05-07 19:30 52.24548 0.27245 11058 ft 291 kts 275°
2026-05-07 19:30 52.24777 0.24003 11057 ft 291 kts 275°
2026-05-07 19:31 52.25009 0.20692 11059 ft 291 kts 275°
2026-05-07 19:31 52.25237 0.17435 11057 ft 291 kts 275°
2026-05-07 19:31 52.25468 0.14114 11057 ft 290 kts 275°
2026-05-07 19:31 52.25693 0.10873 11059 ft 288 kts 275°
2026-05-07 19:32 52.25914 0.07702 11085 ft 271 kts 275°
2026-05-07 19:32 52.26119 0.04731 10869 ft 264 kts 275°
2026-05-07 19:32 52.26323 0.01746 10538 ft 261 kts 275°
2026-05-07 19:32 52.26524 -0.01200 10216 ft 259 kts 275°
2026-05-07 19:33 52.26552 -0.04110 9888 ft 255 kts 257°
2026-05-07 19:33 52.25762 -0.06595 9572 ft 250 kts 227°
2026-05-07 19:33 52.24501 -0.08544 9247 ft 247 kts 221°
2026-05-07 19:33 52.23220 -0.10380 8924 ft 245 kts 221°
2026-05-07 19:34 52.21941 -0.12201 8591 ft 243 kts 221°
2026-05-07 19:34 52.20678 -0.13996 8275 ft 242 kts 221°
2026-05-07 19:34 52.19336 -0.15902 8054 ft 274 kts 221°
2026-05-07 19:34 52.17757 -0.18140 8017 ft 314 kts 221°
2026-05-07 19:35 52.16088 -0.20500 8019 ft 318 kts 221°
2026-05-07 19:35 52.14437 -0.22829 7975 ft 320 kts 221°
2026-05-07 19:35 52.12752 -0.25202 7780 ft 318 kts 221°
2026-05-07 19:35 52.11063 -0.27581 7553 ft 317 kts 221°
2026-05-07 19:36 52.09405 -0.29914 7328 ft 316 kts 221°
2026-05-07 19:36 52.07740 -0.32257 7125 ft 314 kts 221°
2026-05-07 19:36 52.06092 -0.34573 6968 ft 314 kts 221°
2026-05-07 19:36 52.04435 -0.36899 6830 ft 310 kts 221°
2026-05-07 19:37 52.02844 -0.39131 6702 ft 291 kts 221°
2026-05-07 19:37 52.01352 -0.41221 6570 ft 274 kts 221°
2026-05-07 19:37 51.99930 -0.43212 6430 ft 269 kts 221°
2026-05-07 19:37 51.98503 -0.45218 6281 ft 269 kts 221°
2026-05-07 19:38 51.97146 -0.47299 6127 ft 270 kts 229°
2026-05-07 19:38 51.95944 -0.49638 5894 ft 271 kts 231°
2026-05-07 19:38 51.94770 -0.51998 5643 ft 269 kts 231°
2026-05-07 19:38 51.93607 -0.54351 5411 ft 266 kts 231°
2026-05-07 19:39 51.92451 -0.56685 5286 ft 266 kts 231°
2026-05-07 19:39 51.91292 -0.59023 5151 ft 266 kts 231°
2026-05-07 19:39 51.90142 -0.61346 5034 ft 259 kts 231°
2026-05-07 19:39 51.89043 -0.63579 4765 ft 248 kts 231°
2026-05-07 19:40 51.87982 -0.65748 4349 ft 239 kts 231°
2026-05-07 19:40 51.86948 -0.67714 4105 ft 224 kts 218°
2026-05-07 19:40 51.85587 -0.68611 3940 ft 204 kts 178°
2026-05-07 19:40 51.84291 -0.67977 3882 ft 186 kts 148°
2026-05-07 19:41 51.83400 -0.66558 3795 ft 183 kts 124°
2026-05-07 19:41 51.82930 -0.64641 3675 ft 184 kts 100°
2026-05-07 19:41 51.82996 -0.62565 3556 ft 187 kts 80°
2026-05-07 19:41 51.83320 -0.60526 3317 ft 188 kts 76°
2026-05-07 19:42 51.83676 -0.58531 3069 ft 183 kts 76°
2026-05-07 19:42 51.84030 -0.56545 2817 ft 183 kts 76°
2026-05-07 19:42 51.84376 -0.54567 2581 ft 183 kts 77°
2026-05-07 19:42 51.84718 -0.52607 2348 ft 174 kts 77°
2026-05-07 19:43 51.85020 -0.50914 2180 ft 140 kts 77°
2026-05-07 19:43 51.85274 -0.49490 1985 ft 129 kts 78°
2026-05-07 19:43 51.85510 -0.48131 1777 ft 121 kts 79°
2026-05-07 19:43 51.85731 -0.46831 1627 ft 121 kts 79°
2026-05-07 19:44 51.85953 -0.45521 1458 ft 120 kts 79°
2026-05-07 19:44 51.86174 -0.44241 1298 ft 119 kts 78°
2026-05-07 19:44 51.86397 -0.42960 1156 ft 118 kts 78°
2026-05-07 19:44 51.86620 -0.41680 1001 ft 117 kts 78°
2026-05-07 19:45 51.86843 -0.40394 840 ft 117 kts 78°
2026-05-07 19:45 51.87059 -0.39140 673 ft 117 kts 78°
2026-05-07 19:45 51.87274 -0.37883 536 ft 112 kts 76°
2026-05-07 19:45 51.87438 -0.36938 533 ft 58 kts 75°
2026-05-07 19:46 51.87523 -0.36446 533 ft 38 kts 74°
2026-05-07 19:46 51.87583 -0.36099 533 ft 22 kts 74°
2026-05-07 19:46 51.87608 -0.35954 533 ft 8 kts 71°
2026-05-07 19:46 51.87660 -0.35913 533 ft 9 kts 346°
2026-05-07 19:47 51.87725 -0.35945 533 ft 9 kts 340°
2026-05-07 19:47 51.87776 -0.36025 533 ft 12 kts 275°
2026-05-07 19:47 51.87760 -0.36169 533 ft 14 kts 254°
2026-05-07 19:47 51.87729 -0.36348 533 ft 18 kts 253°
2026-05-07 19:48 51.87691 -0.36571 533 ft 22 kts 254°
2026-05-07 19:48 51.87646 -0.36834 533 ft 26 kts 254°
2026-05-07 19:48 51.87596 -0.37122 533 ft 23 kts 253°
2026-05-07 19:48 51.87569 -0.37288 533 ft 12 kts 264°
2026-05-07 19:49 51.87599 -0.37423 533 ft 13 kts 311°
2026-05-07 19:49 51.87667 -0.37501 533 ft 13 kts 316°
2026-05-07 19:49 51.87720 -0.37661 533 ft 18 kts 294°
2026-05-07 19:49 51.87780 -0.37866 533 ft 19 kts 295°
2026-05-07 19:50 51.87823 -0.37973 533 ft 6 kts 290°
2026-05-07 19:50 51.87806 -0.38020 533 ft 4 kts 222°
2026-05-07 19:50 51.87796 -0.38049 533 ft 2 kts 290°
2026-05-07 19:50 51.87806 -0.38069 533 ft 1 kts 308°
2026-05-07 19:51 51.87806 -0.38070 533 ft 0 kts 308°